Weather History for MMMD - October, 2012

Change the Weather History Date:

Saturday, October 13, 2012

  Actual Average Record
Temperature  
Mean Temperature 82 °F -  
Max Temperature 89 °F 89 °F 98 °F (2006)
Min Temperature 74 °F 72 °F 71 °F (2010)
Cooling Degree Days 16    
Growing Degree Days 32 (Base 50)    
Moisture  
Dew Point 69 °F    
Average Humidity 69    
Maximum Humidity 83    
Minimum Humidity 49    
Precipitation  
Precipitation 0.00 in - - ()
Sea Level Pressure  
Sea Level Pressure 30.02 in    
Wind  
Wind Speed 7 mph ()    
Max Wind Speed 16 mph    
Max Gust Speed -    
Visibility 6.6 miles    
Events      
Averages and records for this station are not official NWS values.
T = Trace of Precipitation, MM = Missing Value Source: Averaged Metar Reports

Daily Weather History Graph

Daily Weather History Graph

Search for Another Location

Airport or City:

Trip Planner

Search our weather history database for the weather conditions in past years. The results will help you decide how hot, cold, wet, or windy it might be!

Date:

Astronomy

Oct. 13, 2012 Rise Set
Actual Time 6:53 AM CDT 6:35 PM CDT
Civil Twilight 6:31 AM CDT 6:57 PM CDT
Nautical Twilight 6:05 AM CDT 7:23 PM CDT
Astronomical Twilight 5:39 AM CDT 7:49 PM CDT
Moon 4:55 AM CDT (10/13) 5:11 PM CDT (10/13)
Length of Visible Light 12h 26m
Length of Day
11h 42m
Waning Crescent, 5% of the Moon is Illuminated
Oct 13
Waning Crescent
Oct 15
New
Oct 21
First Quarter
Oct 29
Full
Nov 6
Last Quarter

Hourly Weather History & Observations

Time (CDT) Temp. Heat Index Dew Point Humidity Pressure Visibility Wind Dir Wind Speed Gust Speed Precip Events Conditions
12:44 AM 77.0 °F - 69.8 °F 78% 30.09 in 7.0 mi ENE 5.8 mph - N/A   Clear
1:52 AM 75.2 °F - 69.8 °F 83% 30.05 in 7.0 mi East 4.6 mph - N/A   Clear
2:52 AM 75.2 °F - 68.0 °F 78% 30.03 in 7.0 mi East 4.6 mph - N/A   Clear
3:52 AM 73.4 °F - 68.0 °F 83% 30.06 in 7.0 mi East 5.8 mph - N/A   Clear
4:54 AM 73.4 °F - 68.0 °F 83% 30.03 in 7.0 mi NE 5.8 mph - N/A   Clear
5:56 AM 75.2 °F - 68.0 °F 78% 30.05 in 7.0 mi East 5.8 mph - N/A   Clear
6:42 AM 73.4 °F - 68.0 °F 83% 30.07 in 5.0 mi East 6.9 mph - N/A   Clear
6:50 AM 75 °F - 70 °F 79% 30.06 in 6 mi East 2.2 mph - -   Scattered Clouds
7:45 AM 75.2 °F - 68.0 °F 78% 30.06 in 5.0 mi East 6.9 mph - N/A   Clear
8:47 AM 78.8 °F - 68.0 °F 69% 30.06 in 7.0 mi East 9.2 mph - N/A   Clear
9:44 AM 82.4 °F 85.4 °F 68.0 °F 62% 30.06 in 7.0 mi ENE 10.4 mph - N/A   Clear
9:50 AM 83 °F - 71 °F 60% 30.08 in 6 mi East 8.9 mph - -   Scattered Clouds
10:44 AM 84.2 °F 88.4 °F 69.8 °F 62% 30.06 in 7.0 mi ENE 9.2 mph - N/A   Mostly Cloudy
11:45 AM 86.0 °F 89.4 °F 68.0 °F 55% 30.05 in 7.0 mi ENE 10.4 mph - N/A   Mostly Cloudy
12:47 PM 87.8 °F 91.4 °F 68.0 °F 52% 30.03 in 7.0 mi ENE 12.7 mph - N/A   Mostly Cloudy
12:50 PM 89 °F - 73 °F 51% 30.03 in 6 mi ENE 6.7 mph - -   Partly Cloudy
1:42 PM 87.8 °F 90.4 °F 66.2 °F 49% 29.99 in 7.0 mi ENE 10.4 mph - N/A   Mostly Cloudy
2:49 PM 87.8 °F 92.6 °F 69.8 °F 55% 29.96 in 7.0 mi NE 9.2 mph - N/A   Mostly Cloudy
3:50 PM 87 °F - 74 °F 57% 29.96 in 6 mi NNE 8.9 mph - -   Partly Cloudy
3:54 PM 86.0 °F 90.4 °F 69.8 °F 58% 29.95 in 7.0 mi NE 11.5 mph - N/A   Scattered Clouds
4:46 PM 84.2 °F 88.4 °F 69.8 °F 62% 29.96 in 7.0 mi ENE 11.5 mph - N/A   Mostly Cloudy
5:43 PM 80.6 °F 83.2 °F 68.0 °F 65% 29.97 in 7.0 mi East 11.5 mph - N/A   Scattered Clouds
6:47 PM 80.6 °F 83.2 °F 68.0 °F 65% 29.99 in 7.0 mi East 13.8 mph - N/A   Clear
6:50 PM 81 °F - 71 °F 65% 29.99 in 6 mi ENE 15.7 mph - -   Partly Cloudy
7:48 PM 78.8 °F - 69.8 °F 74% 29.98 in 7.0 mi ENE 11.5 mph - N/A   Clear
8:43 PM 77.0 °F - 69.8 °F 78% 29.99 in 7.0 mi ENE 5.8 mph - N/A   Clear
9:43 PM 77.0 °F - 68.0 °F 74% 30.04 in 7.0 mi ENE 8.1 mph - N/A   Clear
9:50 PM 78 °F - 72 °F 75% 30.01 in 3 mi ENE 8.9 mph - -   Scattered Clouds
10:49 PM 77.0 °F - 68.0 °F 74% 30.00 in 7.0 mi NE 6.9 mph - N/A   Clear
11:46 PM 77.0 °F - 68.0 °F 74% 30.00 in 7.0 mi East 5.8 mph - N/A   Scattered Clouds